Orbital elements:
2024 JV                                                  Earth MOID = 0.0043 AU
Epoch 2024 Mar. 31.0 TT = JDT 2460400.5                 Bell                    
M 355.37138              (2000.0)            P               Q                  
n   0.80282312     Peri.  335.78671     -0.94054958     +0.19971484             
a   1.1465407      Node   219.11378     -0.19401503     -0.97982058             
e   0.1264962      Incl.   25.81676     -0.27879142     +0.00810000             
P   1.23           H   24.61          G   0.15           U   7                  
Residuals in seconds of arc
240501 703  0.4+  1.0-    240501 A17  0.0   0.0     240502 I52  0.0   0.1-
240501 703  0.7-  0.2+    240501 K35  0.1-  0.4+    240502 858  0.1-  0.0
240501 703  0.1+  0.3-    240501 A17  0.2+  0.1-    240502 858  0.0   0.0
240501 V06  0.1-  0.1+    240501 A17  0.4+  0.2+    240502 858  0.0   0.1+
240501 V06  0.2-  0.1+    240501 B72  0.0   0.2-    240502 673  0.1-  0.2+
240501 V06  0.2-  0.0     240501 B72  0.0   0.0     240502 673  0.0   0.3+
240501 V06  0.1-  0.1+    240501 B72  0.0   0.0     240502 673  0.0   0.1+
240501 T05  0.0   0.5-    240502 958  0.6+  0.0     240502 I93  0.0   0.3-
240501 T05  0.4+  0.4-    240502 958  0.4+  0.4+    240502 I93  0.2-  0.0
240501 T05  0.0   0.4+    240502 958  0.4+  0.0     240502 I93  0.2+  0.1-
240501 T05  0.4+  0.3+    240502 K74  0.1+  0.2+    240502 G01  0.0   0.7-
240501 P13  0.0   0.1-    240502 K74  0.0   0.0     240502 G01  1.4-  0.6-
240501 P13  0.0   0.6-    240502 K74  0.2-  0.3+    240502 G19  0.5+  0.1+
240501 P13  0.2-  0.3-    240502 L65  0.0   0.3+    240502 G19  0.0   0.0
240501 P13  0.3-  0.6+    240502 L65  0.1-  0.5-    240502 G19  0.7+  0.4-
240501 P13  0.5-  0.1+    240502 L65  0.6+  0.6+    240503 G01  1.2+  0.6-
240501 L18  1.3-  0.2+    240502 H21  0.1+  0.0     240503 G01  0.4+  0.5-
240501 L18  1.1-  1.6-    240502 H21  0.1-  0.1-    240503 703  0.3-  1.1-
240501 L18  0.7+  0.5-    240502 H21  0.0   0.2+    240503 703  1.0+  0.9+
240501 K35  0.1+  0.1+    240502 I52  0.1-  0.1-    240503 703  0.7-  1.1+
240501 K35  0.2+  0.0     240502 I52  0.2-  0.0
240501 K35  0.2+  0.1+    240502 I52  0.3+  0.1+

Ephemeris:
2024 JV                  a,e,i = 1.15, 0.13, 26                  q = 1.0015
Date    TT    R. A. (2000) Decl.     Delta      r    Elong.  Phase     V
2024 04 03    04 49 09.8 -69 10 29   0.2003  1.0017    84.8    83.7    24.1
...
2024 04 18    04 50 19.6 -71 08 57   0.08778 1.0043    87.6    87.4    22.4
...
2024 04 26    04 58 39.1 -79 45 27   0.02528 1.0090    95.7    82.9    19.5
...
2024 05 02    16 44 52.5 +55 04 24   0.02344 1.0140   104.6    74.1    19.1
2024 05 03    16 45 20.2 +58 20 07   0.03121 1.0149   101.7    76.5    19.8
2024 05 04    16 45 36.1 +60 17 13   0.03903 1.0158   100.0    77.8    20.3
...
2024 05 10    16 45 40.2 +64 25 49   0.08599 1.0221    95.9    79.3    22.1
...
2024 05 18    16 44 51.6 +65 38 24   0.1474  1.0321    93.9    77.9    23.2
...
2024 06 02    16 43 04.6 +65 41 37   0.2553  1.0550    92.1    73.9    24.3

M. P. C. Staff               (C) Copyright 2024 MPC           M.P.E.C. 2024-J50





More information about the Iaude mailing list